DELTA 1 DEB, 21475

Orbit data source: Space-Track

DELTA 1 DEB, 21475 is space debris in SSO originally from a launch on Thu, 12 Jun 1975 UTC launched from the Air Force Western Test Range (AFWTR). Debris objects in space refer to the collection of defunct objects orbiting the Earth. Examples of debris include non-operational satellites, rocket bodies, and fragments generated from explosions, collisions, or faulty payload assembly.

Loading next visibility...
Identifier
21475, 1975-052FK
Orbit
SSO
Country
Flag of USUS
Related business
Manufacturer
Unknown
Mission
Spacecraft
Bus & Motor
Unknown
Mass
Unknown
Launch date (UTC)
1975-06-12 (51 years ago)
Launch vehicle
Unknown
Launch site
Air Force Western Test Range (AFWTR)
Object type
Payload
Rocket body
Debris
Shape & HBR
Unknown shape, 0.1 m
Radar Cross Section
Medium (>0.1 m² and <1 m²)

Expand to show TLE details & history
Last TLE update: 2 days ago

TLE from 2 days ago
0 DELTA 1 DEB
1 21475U 75052FK  26171.44728676  .00000017  00000-0  86618-4 0  9990
2 21475  99.6086 339.7350 0090884 221.3146 164.3231 13.54151480731943
Epoch: 2026-06-20T10:44Z
TLE epoch observation values (Epoch: 2026-06-20T10:44:05.576Z)
Latitude
25.55695°
Longitude
-94.56974°
Altitude
1,125.132 km
Speed
7.26 km/s
True Right ascension
22h 20m 27s
True Declination
25° 25' 48"
Sunlit
Object was in daylight at epoch
Visualization orbit readout
Latitude
Unknown
Longitude
Unknown
Altitude
Unknown
Speed
Unknown
Apparent Right ascension
Unknown
Apparent Declination
Unknown
Sunlit
N/A
Visualization observer readout
Local Sidereal Time
23:20:44
Azimuth
Unknown
Elevation
Unknown
Doppler factor
Unknown
Orbital elements
Apogee altitude
1,121.863 km
Perigee altitude
986.765 km
Semi-major axis
7,432.451 km
Eccentricity
0.00909
Inclination
99.6086°
RAAN
339.735°
Arg. of periapsis
221.3146°
True anomaly
164.60147°
Mean anomaly
164.3231°
Eccentric anomaly
164.46259°
Mean motion
3.38723 °/min
Orbital period
106.28 mins
BSTAR
0.000086618
Loading maneuver chart data...
Computing Atmospheric mass density...
Loading historical data...
Loading historical data...
Loading historical data...
Loading historical data...
Loading historical data...
Loading historical data...
Loading historical data...

Documentation

Showing up to 5 results
|